(330650) = 2006 SS354 = 2008 FG78

Discovered at Mount Lemmon on 2008-03-27 by Mt. Lemmon Survey.

Orbit

Orbit type: Main Belt

Note: WebGL enabled browser required.

epoch2023-02-25.0
epoch JD2460000.5
perihelion date2022-10-13.06334
perihelion JD2459865.56334
argument of perihelion (°)280.84274
ascending node (°)199.84890
inclination (°)4.56367
eccentricity0.1589242
perihelion distance (AU)2.0388702
Tisserand w.r.t. Jupiter3.5
ΔV w.r.t. Earth (km/sec)9.0
semimajor axis (AU)2.4241218
mean anomaly (°)35.23726
mean daily motion (°/day)0.26113930
aphelion distance (AU)2.809
period (years)3.77
P-vector [x]-0.50936020
P-vector [y]0.81736501
P-vector [z]0.26919626
Q-vector [x]-0.86012924
Q-vector [y]-0.47373799
Q-vector [z]-0.18907672
absolute magnitude18.27
phase slope0.15
uncertainty0
referenceMPO 745323
observations used125
oppositions9
arc length (days)6043
first opposition used2006
last opposition used2023
residual rms (arc-secs)0.89
perturbers coarse indicatorM-v
perturbers precise indicator003Ek
first observation date used2006-09-30.0
last observation date used2023-04-17.0
computer nameMPCLINUX
JD of orbit computation2456071.364780
perihelion JD uncertainty (days)2.8175E-04
argument of perihelion uncertainty (°)1.1901E-04
ascending node uncertainty (°)9.3365E-05
inclination uncertainty (°)2.0304E-05
eccentricity uncertainty 6.2127E-08
perihelion distance uncertainty (AU)1.3556E-07
Minimum Orbit Intersection Distances (in AU)
for orbit epoch: 2460000.5, reference: E2023-HA3
Mercury1.7173
Venus1.32817
Earth1.06023
Mars0.43684
Jupiter2.28474
Saturn6.8986
Uranus16.2494
Neptune27.2766

Observations

130 total observations over interval: 2006 09 30.31043 – 2023 04 17.295699
These data are available for download (format description).

